Location: Brno
(49.2000°N, 16.6330°E)
Time: 19:26:04
(UTC+02:00)

ISS - Visible Passes

Search period start: 13 May 2025 00:00
Search period end: 23 May 2025 00:00
Orbit: 416 x 420 km, 51.6° (Epoch: 13 May)

Date Brightness Start Highest point End Pass type
(mag) Time Alt. Az. Time Alt. Az. Time Alt. Az.
13 May -2.5 00:39:55 10° WNW 00:42:02 35° WNW 00:42:02 35° WNW visible
13 May -3.3 22:14:57 10° W 22:18:17 64° NNW 22:21:38 10° ENE visible
13 May -3.3 23:51:58 10° WNW 23:55:19 59° N 23:55:47 52° NE visible
14 May -3.6 21:26:57 10° WSW 21:30:19 78° NNW 21:33:41 10° ENE visible
14 May -3.1 23:04:00 10° WNW 23:07:19 54° N 23:09:27 20° ENE visible
15 May -2.0 00:40:51 10° WNW 00:42:21 24° WNW 00:42:21 24° WNW visible
15 May -3.0 22:15:59 10° W 22:19:17 54° N 22:22:36 10° ENE visible
15 May -3.7 23:52:54 10° WNW 23:55:59 73° NW 23:55:59 73° NW visible
16 May -3.1 21:27:56 10° W 21:31:16 57° N 21:34:35 10° ENE visible
16 May -3.5 23:04:55 10° WNW 23:08:16 69° NNE 23:09:36 33° E visible
17 May -1.3 00:41:49 10° W 00:42:30 15° W 00:42:30 15° W visible
17 May -3.2 22:16:55 10° WNW 22:20:14 59° N 22:23:12 13° E visible
17 May -2.8 23:53:45 10° WNW 23:56:06 38° W 23:56:06 38° W visible
18 May -3.1 21:28:52 10° WNW 21:32:11 54° N 21:35:29 10° E visible
18 May -3.9 23:05:43 10° WNW 23:09:05 75° SSW 23:09:41 55° SE visible
19 May -3.8 22:17:42 10° WNW 22:21:04 83° NNE 22:23:17 20° ESE visible
19 May -1.8 23:54:45 10° W 23:56:11 19° WSW 23:56:11 19° WSW visible
20 May -3.5 21:29:39 10° WNW 21:33:01 68° NNE 21:36:22 10° E visible
20 May -3.1 23:06:33 10° W 23:09:41 37° SSW 23:09:47 37° SSW visible
21 May -3.5 22:18:25 10° WNW 22:21:42 54° SSW 22:23:24 25° SE visible
22 May -3.8 21:30:19 10° WNW 21:33:41 77° SSW 21:37:00 10° ESE visible
22 May -1.8 23:07:42 10° W 23:09:55 18° SW 23:09:55 18° SW visible
